| time (UTC) | temp F | wind direction | speed MPH | gust MPH | rain 1hr in | rain 24hr in | rain mn in | humidity % | barometer mb |
| 20260831073014 | 56 | 331 | 0.0 | 0.0 | 0.00 | 0.00 | 0.00 | 99 | 1046.0 |
| 20260831072510 | 56 | 327 | 0.0 | 0.0 | 0.00 | 0.00 | 0.00 | 99 | 1046.0 |
| 20260831072006 | 56 | 322 | 0.0 | 0.0 | 0.00 | 0.00 | 0.00 | 99 | 1045.8 |
| 20260831071505 | 56 | 317 | 0.0 | 0.0 | 0.00 | 0.00 | 0.00 | 99 | 1045.6 |
| 20260831071000 | 57 | 342 | 0.0 | 0.0 | 0.00 | 0.00 | 0.00 | 99 | 1045.8 |
| 20260831070459 | 57 | 342 | 0.0 | 0.0 | 0.00 | 0.00 | 0.00 | 99 | 1045.7 |
| 20260831065958 | 57 | 342 | 0.0 | 0.0 | 0.00 | 0.00 | 0.00 | 99 | 1045.9 |
| 20260831065457 | 58 | 342 | 0.0 | 0.0 | 0.00 | 0.00 | 0.00 | 99 | 1045.6 |
| 20260831064951 | 57 | 342 | 0.0 | 0.0 | 0.00 | 0.00 | 0.00 | 99 | 1045.6 |
| 20260831064447 | 58 | 342 | 0.0 | 0.0 | 0.00 | 0.00 | 0.00 | 99 | 1045.8 |
| 20260831063942 | 58 | 342 | 0.0 | 0.0 | 0.00 | 0.00 | 0.00 | 99 | 1045.6 |
| 20260831063437 | 58 | 342 | 0.0 | 0.0 | 0.00 | 0.00 | 0.00 | 99 | 1045.7 |
| 20260831062931 | 58 | 342 | 0.0 | 0.0 | 0.00 | 0.00 | 0.00 | 99 | 1045.7 |
| 20260831062429 | 58 | 342 | 0.0 | 0.0 | 0.00 | 0.00 | 0.00 | 99 | 1045.7 |
| 20260831061926 | 58 | 342 | 0.0 | 0.0 | 0.00 | 0.00 | 0.00 | 99 | 1045.7 |
| 20260831061425 | 58 | 342 | 0.0 | 0.0 | 0.00 | 0.00 | 0.00 | 99 | 1045.9 |
| 20260831060921 | 58 | 342 | 0.0 | 0.0 | 0.00 | 0.00 | 0.00 | 99 | 1045.8 |
| 20260831060416 | 58 | 342 | 0.0 | 0.0 | 0.00 | 0.00 | 0.00 | 99 | 1045.6 |
| 20260831055915 | 58 | 342 | 0.0 | 0.0 | 0.00 | 0.00 | 0.00 | 99 | 1045.7 |
| 20260831055410 | 58 | 342 | 0.0 | 0.0 | 0.00 | 0.00 | 0.00 | 99 | 1045.8 |
| 20260831054906 | 58 | 342 | 0.0 | 0.0 | 0.00 | 0.00 | 0.00 | 99 | 1045.6 |
| 20260831054401 | 58 | 342 | 0.0 | 0.0 | 0.00 | 0.00 | 0.00 | 99 | 1045.7 |
| 20260831053900 | 58 | 338 | 0.0 | 0.0 | 0.00 | 0.00 | 0.00 | 99 | 1045.9 |
| 20260831053358 | 58 | 337 | 0.0 | 0.0 | 0.00 | 0.00 | 0.00 | 99 | 1045.6 |
| 20260831052853 | 58 | 338 | 0.0 | 0.0 | 0.00 | 0.00 | 0.00 | 99 | 1045.7 |
| 20260831052352 | 58 | 338 | 0.0 | 0.0 | 0.00 | 0.00 | 0.00 | 99 | 1045.7 |
| 20260831051850 | 58 | 338 | 0.0 | 0.0 | 0.00 | 0.00 | 0.00 | 99 | 1045.7 |
| 20260831051348 | 58 | 336 | 0.0 | 0.0 | 0.00 | 0.00 | 0.00 | 99 | 1045.7 |
| 20260831050844 | 58 | 333 | 0.0 | 0.0 | 0.00 | 0.00 | 0.00 | 99 | 1045.6 |
| 20260831050337 | 59 | 333 | 0.0 | 0.0 | 0.00 | 0.00 | 0.00 | 99 | 1045.8 |
| 20260831045831 | 59 | 333 | 0.0 | 0.0 | 0.00 | 0.00 | 0.00 | 99 | 1045.5 |
| 20260831045326 | 59 | 334 | 0.0 | 0.0 | 0.00 | 0.00 | 0.00 | 99 | 1045.5 |
| 20260831044821 | 59 | 325 | 0.0 | 0.0 | 0.00 | 0.00 | 0.00 | 99 | 1045.6 |
| 20260831044316 | 59 | 319 | 0.0 | 0.0 | 0.00 | 0.00 | 0.00 | 99 | 1045.5 |
| 20260831043812 | 59 | 329 | 0.0 | 0.0 | 0.00 | 0.00 | 0.00 | 98 | 1045.6 |
| 20260831043311 | 59 | 329 | 0.0 | 0.0 | 0.00 | 0.00 | 0.00 | 98 | 1045.5 |
| 20260831042806 | 60 | 334 | 0.0 | 0.0 | 0.00 | 0.00 | 0.00 | 98 | 1045.6 |
| 20260831042300 | 60 | 334 | 0.0 | 0.0 | 0.00 | 0.00 | 0.00 | 98 | 1045.2 |
| 20260831041756 | 60 | 343 | 0.0 | 0.0 | 0.00 | 0.00 | 0.00 | 98 | 1045.4 |
| 20260831041255 | 60 | 324 | 0.0 | 0.0 | 0.00 | 0.00 | 0.00 | 97 | 1045.5 |
| 20260831040750 | 60 | 322 | 0.0 | 0.0 | 0.00 | 0.00 | 0.00 | 97 | 1045.4 |
| 20260831040249 | 60 | 324 | 0.0 | 0.0 | 0.00 | 0.00 | 0.00 | 96 | 1045.4 |
| 20260831035748 | 61 | 324 | 0.0 | 0.0 | 0.00 | 0.04 | 0.04 | 96 | 1045.4 |
| 20260831035247 | 61 | 323 | 0.0 | 0.0 | 0.00 | 0.04 | 0.04 | 96 | 1045.5 |
| 20260831034746 | 61 | 331 | 0.0 | 0.0 | 0.00 | 0.04 | 0.04 | 97 | 1045.4 |
| 20260831034242 | 61 | 322 | 0.0 | 0.0 | 0.00 | 0.04 | 0.04 | 97 | 1045.5 |
| 20260831033737 | 62 | 326 | 0.0 | 0.0 | 0.07 | 0.04 | 0.04 | 99 | 1045.5 |
| 20260831033237 | 62 | 336 | 0.0 | 0.0 | 0.07 | 0.04 | 0.04 | 99 | 1045.6 |
| 20260831032732 | 62 | 326 | 1.0 | 1.0 | 0.00 | 0.03 | 0.03 | 99 | 1045.5 |
| 20260831032227 | 63 | 348 | 0.0 | 0.0 | 0.00 | 0.03 | 0.03 | 99 | 1045.5 |
| 20260831031722 | 63 | 330 | 0.0 | 1.0 | 0.00 | 0.03 | 0.03 | 99 | 1045.7 |
| 20260831031217 | 63 | 327 | 0.0 | 0.0 | 0.00 | 0.03 | 0.03 | 99 | 1045.5 |
| 20260831030716 | 63 | 342 | 0.0 | 0.0 | 0.00 | 0.03 | 0.03 | 99 | 1045.3 |
| 20260831030214 | 63 | 341 | 0.0 | 0.0 | 0.00 | 0.03 | 0.03 | 99 | 1045.3 |
| 20260831025708 | 63 | 341 | 0.0 | 0.0 | 0.00 | 0.03 | 0.03 | 99 | 1045.3 |
| 20260831025203 | 63 | 341 | 0.0 | 0.0 | 0.00 | 0.03 | 0.03 | 99 | 1045.3 |
| 20260831024659 | 63 | 341 | 0.0 | 0.0 | 0.00 | 0.03 | 0.03 | 99 | 1045.3 |
| 20260831024157 | 63 | 341 | 0.0 | 0.0 | 0.00 | 0.03 | 0.03 | 99 | 1045.0 |
| 20260831023655 | 63 | 341 | 0.0 | 0.0 | 0.00 | 0.03 | 0.03 | 99 | 1045.4 |
| 20260831023149 | 63 | 341 | 0.0 | 0.0 | 0.00 | 0.03 | 0.03 | 99 | 1045.3 |
| 20260831022645 | 63 | 341 | 0.0 | 0.0 | 0.00 | 0.03 | 0.03 | 99 | 1045.3 |
| 20260831022140 | 63 | 341 | 0.0 | 0.0 | 0.00 | 0.03 | 0.03 | 99 | 1045.0 |
| 20260831021639 | 63 | 341 | 0.0 | 0.0 | 0.00 | 0.03 | 0.03 | 99 | 1045.2 |
| 20260831021134 | 63 | 341 | 0.0 | 0.0 | 0.00 | 0.03 | 0.03 | 99 | 1045.3 |
| 20260831020630 | 63 | 340 | 0.0 | 0.0 | 0.00 | 0.03 | 0.03 | 99 | 1045.3 |
| 20260831020124 | 63 | 340 | 0.0 | 0.0 | 0.00 | 0.03 | 0.03 | 99 | 1045.2 |
| 20260831015620 | 63 | 340 | 0.0 | 0.0 | 0.00 | 0.03 | 0.03 | 99 | 1045.3 |
| 20260831015120 | 63 | 341 | 0.0 | 0.0 | 0.00 | 0.03 | 0.03 | 99 | 1045.2 |
| 20260831014615 | 63 | 341 | 0.0 | 0.0 | 0.00 | 0.03 | 0.03 | 99 | 1045.4 |
| 20260831014111 | 63 | 342 | 0.0 | 0.0 | 0.00 | 0.03 | 0.03 | 99 | 1045.2 |
| 20260831013607 | 63 | 328 | 0.0 | 0.0 | 0.00 | 0.03 | 0.03 | 99 | 1044.9 |
| 20260831013106 | 63 | 327 | 0.0 | 0.0 | 0.00 | 0.03 | 0.03 | 99 | 1044.8 |
| 20260831012606 | 64 | 330 | 0.0 | 0.0 | 0.00 | 0.03 | 0.03 | 99 | 1044.9 |
| 20260831012101 | 64 | 330 | 0.0 | 0.0 | 0.00 | 0.03 | 0.03 | 99 | 1045.2 |
| 20260831011601 | 64 | 345 | 0.0 | 0.0 | 0.00 | 0.03 | 0.03 | 99 | 1045.0 |
| 20260831011056 | 64 | 342 | 0.0 | 0.0 | 0.00 | 0.03 | 0.03 | 99 | 1044.8 |
| 20260831010551 | 64 | 344 | 0.0 | 0.0 | 0.00 | 0.03 | 0.03 | 99 | 1044.8 |
| 20260831010048 | 64 | 341 | 0.0 | 0.0 | 0.00 | 0.03 | 0.03 | 99 | 1044.6 |
| 20260831005542 | 64 | 341 | 0.0 | 0.0 | 0.00 | 0.03 | 0.03 | 98 | 1044.6 |
| 20260831005042 | 64 | 342 | 0.0 | 0.0 | 0.00 | 0.03 | 0.03 | 98 | 1044.6 |
| 20260831004538 | 64 | 327 | 0.0 | 0.0 | 0.00 | 0.03 | 0.03 | 98 | 1044.8 |
| 20260831004034 | 65 | 328 | 0.0 | 0.0 | 0.00 | 0.03 | 0.03 | 98 | 1044.5 |
| 20260831003530 | 65 | 336 | 0.0 | 0.0 | 0.00 | 0.03 | 0.03 | 98 | 1044.7 |
| 20260831003025 | 65 | 323 | 0.0 | 0.0 | 0.00 | 0.03 | 0.03 | 98 | 1044.6 |
| 20260831002524 | 65 | 323 | 0.0 | 0.0 | 0.00 | 0.03 | 0.03 | 97 | 1044.6 |
| 20260831002019 | 65 | 323 | 0.0 | 0.0 | 0.00 | 0.03 | 0.03 | 97 | 1044.5 |
| 20260831001515 | 65 | 323 | 0.0 | 0.0 | 0.00 | 0.03 | 0.03 | 97 | 1044.5 |
| 20260831001011 | 65 | 28 | 0.0 | 0.0 | 0.00 | 0.03 | 0.03 | 97 | 1044.5 |
| 20260831000507 | 65 | 340 | 0.0 | 0.0 | 0.00 | 0.03 | 0.03 | 96 | 1044.4 |
| 20260830235959 | 65 | 340 | 0.0 | 0.0 | 0.00 | 0.03 | 0.03 | 96 | 1044.4 |
| 20260830235455 | 65 | 337 | 0.0 | 0.0 | 0.00 | 0.03 | 0.03 | 95 | 1044.3 |
| 20260830234949 | 65 | 324 | 0.0 | 0.0 | 0.00 | 0.03 | 0.03 | 94 | 1044.2 |
| 20260830234444 | 65 | 325 | 0.0 | 0.0 | 0.05 | 0.03 | 0.03 | 94 | 1043.8 |
| 20260830233940 | 66 | 333 | 0.0 | 0.0 | 0.05 | 0.03 | 0.03 | 94 | 1044.0 |
| 20260830233435 | 66 | 325 | 0.0 | 0.0 | 0.00 | 0.02 | 0.02 | 94 | 1044.0 |
| 20260830232931 | 66 | 324 | 0.0 | 0.0 | 0.07 | 0.02 | 0.02 | 92 | 1043.8 |
| 20260830232427 | 67 | 323 | 0.0 | 0.0 | 0.07 | 0.02 | 0.02 | 91 | 1043.7 |
| 20260830231923 | 68 | 321 | 0.0 | 0.0 | 0.00 | 0.01 | 0.01 | 89 | 1043.5 |
| 20260830231423 | 69 | 325 | 0.0 | 0.0 | 0.00 | 0.01 | 0.01 | 87 | 1043.7 |
| 20260830230918 | 69 | 332 | 0.0 | 0.0 | 0.00 | 0.01 | 0.01 | 84 | 1043.4 |
| 20260830230413 | 70 | 333 | 0.0 | 0.0 | 0.00 | 0.01 | 0.01 | 80 | 1043.6 |
| 20260830225912 | 70 | 313 | 0.0 | 0.0 | 0.00 | 0.01 | 0.01 | 80 | 1043.5 |
| 20260830225408 | 70 | 350 | 0.0 | 0.0 | 0.00 | 0.01 | 0.01 | 82 | 1043.4 |
| 20260830224902 | 69 | 321 | 0.0 | 0.0 | 0.00 | 0.01 | 0.01 | 84 | 1043.3 |
| 20260830224401 | 68 | 311 | 0.0 | 0.0 | 0.00 | 0.01 | 0.01 | 86 | 1043.5 |
| 20260830223858 | 69 | 322 | 0.0 | 0.0 | 0.00 | 0.01 | 0.01 | 89 | 1043.4 |
| 20260830223354 | 69 | 322 | 0.0 | 0.0 | 0.00 | 0.01 | 0.01 | 87 | 1043.6 |
| 20260830222853 | 69 | 322 | 0.0 | 0.0 | 0.00 | 0.01 | 0.01 | 85 | 1043.2 |
| 20260830222349 | 70 | 322 | 0.0 | 0.0 | 0.00 | 0.01 | 0.01 | 86 | 1043.3 |
| 20260830221844 | 70 | 322 | 0.0 | 0.0 | 0.00 | 0.01 | 0.01 | 86 | 1043.2 |
| 20260830221341 | 70 | 323 | 0.0 | 0.0 | 0.00 | 0.01 | 0.01 | 83 | 1043.2 |
| 20260830220836 | 70 | 323 | 0.0 | 0.0 | 0.00 | 0.01 | 0.01 | 81 | 1043.3 |
| 20260830220336 | 70 | 323 | 0.0 | 0.0 | 0.00 | 0.01 | 0.01 | 81 | 1043.3 |
| 20260830215834 | 70 | 322 | 0.0 | 0.0 | 0.00 | 0.01 | 0.01 | 80 | 1043.3 |
| 20260830215328 | 71 | 323 | 0.0 | 0.0 | 0.00 | 0.01 | 0.01 | 80 | 1043.3 |
| 20260830214823 | 71 | 323 | 0.0 | 0.0 | 0.00 | 0.01 | 0.01 | 80 | 1043.3 |
| 20260830214318 | 71 | 323 | 0.0 | 0.0 | 0.00 | 0.01 | 0.01 | 79 | 1043.3 |
| 20260830213818 | 71 | 323 | 0.0 | 0.0 | 0.00 | 0.01 | 0.01 | 79 | 1043.2 |
| 20260830213313 | 71 | 322 | 0.0 | 0.0 | 0.00 | 0.01 | 0.01 | 78 | 1043.2 |
| 20260830212809 | 72 | 322 | 0.0 | 0.0 | 0.00 | 0.01 | 0.01 | 78 | 1043.4 |
| 20260830212306 | 72 | 322 | 0.0 | 0.0 | 0.00 | 0.01 | 0.01 | 77 | 1043.2 |
| 20260830211803 | 72 | 321 | 0.0 | 0.0 | 0.00 | 0.01 | 0.01 | 76 | 1043.1 |
| 20260830211303 | 72 | 321 | 0.0 | 0.0 | 0.00 | 0.01 | 0.01 | 77 | 1043.3 |
| 20260830210759 | 71 | 322 | 0.0 | 0.0 | 0.00 | 0.01 | 0.01 | 77 | 1043.2 |
| 20260830210258 | 71 | 322 | 0.0 | 0.0 | 0.00 | 0.01 | 0.01 | 76 | 1043.4 |
| 20260830205755 | 71 | 341 | 0.0 | 0.0 | 0.00 | 0.01 | 0.01 | 78 | 1043.4 |
| 20260830205250 | 71 | 340 | 0.0 | 0.0 | 0.00 | 0.01 | 0.01 | 77 | 1043.4 |
| 20260830204746 | 71 | 325 | 0.0 | 0.0 | 0.00 | 0.01 | 0.01 | 75 | 1043.4 |
| 20260830204244 | 71 | 325 | 0.0 | 0.0 | 0.00 | 0.01 | 0.01 | 75 | 1043.4 |
| 20260830203741 | 71 | 339 | 0.0 | 0.0 | 0.00 | 0.01 | 0.01 | 76 | 1043.3 |
| 20260830203236 | 72 | 325 | 0.0 | 0.0 | 0.00 | 0.01 | 0.01 | 74 | 1043.4 |
| 20260830202736 | 72 | 322 | 0.0 | 0.0 | 0.00 | 0.01 | 0.01 | 75 | 1043.5 |
| 20260830202231 | 71 | 308 | 0.0 | 0.0 | 0.00 | 0.01 | 0.01 | 75 | 1043.4 |
| 20260830201730 | 71 | 340 | 0.0 | 0.0 | 0.00 | 0.01 | 0.01 | 77 | 1043.5 |
| 20260830201226 | 72 | 334 | 0.0 | 0.0 | 0.00 | 0.01 | 0.01 | 78 | 1043.3 |
| 20260830200721 | 72 | 321 | 0.0 | 0.0 | 0.00 | 0.01 | 0.01 | 76 | 1043.3 |
| 20260830200220 | 72 | 322 | 0.0 | 0.0 | 0.00 | 0.01 | 0.01 | 78 | 1043.4 |
| 20260830195716 | 72 | 322 | 0.0 | 0.0 | 0.00 | 0.01 | 0.01 | 76 | 1043.5 |
| 20260830195214 | 72 | 337 | 0.0 | 0.0 | 0.00 | 0.01 | 0.01 | 76 | 1043.6 |
| 20260830194713 | 72 | 337 | 0.0 | 0.0 | 0.00 | 0.01 | 0.01 | 76 | 1043.6 |
| 20260830194208 | 72 | 323 | 0.0 | 0.0 | 0.00 | 0.01 | 0.01 | 76 | 1043.5 |
| 20260830193702 | 72 | 341 | 0.0 | 0.0 | 0.00 | 0.01 | 0.01 | 75 | 1043.6 |
| 20260830193156 | 72 | 329 | 0.0 | 0.0 | 0.00 | 0.01 | 0.01 | 74 | 1043.6 |
| 20260830192652 | 72 | 341 | 0.0 | 0.0 | 0.00 | 0.01 | 0.01 | 80 | 1043.8 |
| 20260830192147 | 72 | 336 | 0.0 | 0.0 | 0.00 | 0.01 | 0.01 | 76 | 1043.8 |
| 20260830191643 | 72 | 321 | 0.0 | 0.0 | 0.00 | 0.01 | 0.01 | 74 | 1043.8 |
| 20260830191137 | 71 | 323 | 0.0 | 0.0 | 0.00 | 0.01 | 0.01 | 78 | 1043.9 |
| 20260830190633 | 71 | 340 | 0.0 | 0.0 | 0.00 | 0.01 | 0.01 | 79 | 1044.0 |
| 20260830190128 | 71 | 308 | 0.0 | 0.0 | 0.00 | 0.01 | 0.01 | 77 | 1044.1 |
| 20260830185626 | 70 | 337 | 0.0 | 0.0 | 0.00 | 0.01 | 0.01 | 78 | 1043.9 |
| 20260830185122 | 70 | 325 | 0.0 | 0.0 | 0.00 | 0.01 | 0.01 | 83 | 1044.1 |
| 20260830184621 | 69 | 324 | 0.0 | 0.0 | 0.00 | 0.01 | 0.01 | 83 | 1044.2 |
| 20260830184116 | 69 | 332 | 0.0 | 0.0 | 0.00 | 0.01 | 0.01 | 83 | 1044.3 |
| 20260830183611 | 69 | 337 | 0.0 | 0.0 | 0.00 | 0.01 | 0.01 | 86 | 1044.4 |
| 20260830183107 | 68 | 339 | 0.0 | 0.0 | 0.00 | 0.01 | 0.01 | 86 | 1044.5 |
| 20260830182602 | 68 | 332 | 0.0 | 0.0 | 0.00 | 0.01 | 0.01 | 87 | 1044.4 |
| 20260830182058 | 68 | 330 | 0.0 | 0.0 | 0.00 | 0.01 | 0.01 | 88 | 1044.4 |
| 20260830181554 | 67 | 344 | 0.0 | 0.0 | 0.00 | 0.01 | 0.01 | 89 | 1044.5 |
| 20260830181053 | 67 | 335 | 0.0 | 0.0 | 0.00 | 0.01 | 0.01 | 89 | 1044.7 |
| 20260830180552 | 67 | 328 | 0.0 | 0.0 | 0.00 | 0.01 | 0.01 | 89 | 1044.6 |
| 20260830180052 | 67 | 344 | 0.0 | 0.0 | 0.00 | 0.01 | 0.01 | 90 | 1044.8 |
| 20260830175551 | 67 | 344 | 0.0 | 0.0 | 0.00 | 0.01 | 0.01 | 89 | 1044.9 |
| 20260830175047 | 67 | 331 | 0.0 | 0.0 | 0.00 | 0.01 | 0.01 | 89 | 1044.9 |
| 20260830174542 | 66 | 348 | 0.0 | 0.0 | 0.00 | 0.01 | 0.01 | 89 | 1045.0 |
| 20260830174037 | 66 | 348 | 0.0 | 0.0 | 0.00 | 0.01 | 0.01 | 90 | 1045.2 |
| 20260830173533 | 66 | 348 | 0.0 | 0.0 | 0.00 | 0.01 | 0.01 | 91 | 1045.2 |
| 20260830173027 | 66 | 350 | 0.0 | 0.0 | 0.00 | 0.01 | 0.01 | 90 | 1045.3 |
| 20260830172525 | 66 | 321 | 0.0 | 0.0 | 0.00 | 0.01 | 0.01 | 89 | 1045.5 |
| 20260830172021 | 66 | 327 | 0.0 | 0.0 | 0.00 | 0.01 | 0.01 | 91 | 1045.2 |
| 20260830171520 | 66 | 330 | 0.0 | 0.0 | 0.00 | 0.01 | 0.01 | 94 | 1045.4 |
| 20260830171020 | 66 | 342 | 0.0 | 0.0 | 0.00 | 0.01 | 0.01 | 94 | 1045.4 |
| 20260830170515 | 65 | 323 | 0.0 | 0.0 | 0.00 | 0.01 | 0.01 | 94 | 1045.7 |
| 20260830170014 | 65 | 323 | 0.0 | 0.0 | 0.00 | 0.01 | 0.01 | 94 | 1045.8 |
| 20260830165509 | 65 | 340 | 0.0 | 0.0 | 0.00 | 0.01 | 0.01 | 94 | 1045.7 |
| 20260830165005 | 65 | 325 | 0.0 | 0.0 | 0.05 | 0.01 | 0.01 | 94 | 1045.8 |
| 20260830164502 | 65 | 325 | 0.0 | 0.0 | 0.05 | 0.01 | 0.01 | 93 | 1045.7 |
| 20260830163957 | 65 | 325 | 0.0 | 0.0 | 0.00 | 0.00 | 0.00 | 92 | 1045.9 |
| 20260830163454 | 65 | 324 | 0.0 | 0.0 | 0.00 | 0.00 | 0.00 | 91 | 1046.0 |
| 20260830162953 | 65 | 323 | 0.0 | 0.0 | 0.00 | 0.00 | 0.00 | 91 | 1046.0 |
| 20260830162449 | 65 | 325 | 0.0 | 0.0 | 0.00 | 0.00 | 0.00 | 91 | 1046.3 |
| 20260830161948 | 64 | 324 | 0.0 | 0.0 | 0.00 | 0.00 | 0.00 | 91 | 1046.0 |
| 20260830161443 | 65 | 319 | 0.0 | 0.0 | 0.00 | 0.00 | 0.00 | 91 | 1046.2 |
| 20260830160938 | 65 | 320 | 0.0 | 0.0 | 0.00 | 0.00 | 0.00 | 92 | 1046.3 |
| 20260830160435 | 65 | 321 | 0.0 | 0.0 | 0.00 | 0.00 | 0.00 | 93 | 1046.3 |
| 20260830155929 | 66 | 321 | 0.0 | 0.0 | 0.00 | 0.00 | 0.00 | 93 | 1046.2 |
| 20260830155426 | 66 | 321 | 0.0 | 0.0 | 0.00 | 0.00 | 0.00 | 91 | 1046.0 |
| 20260830154920 | 66 | 341 | 0.0 | 0.0 | 0.00 | 0.00 | 0.00 | 88 | 1045.7 |
| 20260830154416 | 66 | 341 | 0.0 | 0.0 | 0.00 | 0.00 | 0.00 | 86 | 1045.5 |
| 20260830153913 | 67 | 349 | 0.0 | 0.0 | 0.00 | 0.00 | 0.00 | 84 | 1045.8 |
| 20260830153408 | 67 | 334 | 0.0 | 0.0 | 0.00 | 0.00 | 0.00 | 81 | 1045.8 |
| 20260830152907 | 68 | 317 | 0.0 | 0.0 | 0.00 | 0.00 | 0.00 | 79 | 1046.0 |
| 20260830152402 | 68 | 325 | 0.0 | 0.0 | 0.00 | 0.00 | 0.00 | 79 | 1046.2 |
| 20260830151856 | 68 | 324 | 0.0 | 0.0 | 0.00 | 0.00 | 0.00 | 80 | 1046.5 |
| 20260830151355 | 68 | 324 | 0.0 | 0.0 | 0.00 | 0.00 | 0.00 | 78 | 1046.2 |
| 20260830150851 | 68 | 325 | 0.0 | 0.0 | 0.00 | 0.00 | 0.00 | 78 | 1046.3 |
| 20260830150350 | 68 | 326 | 0.0 | 0.0 | 0.00 | 0.00 | 0.00 | 79 | 1046.2 |
| 20260830145845 | 68 | 294 | 0.0 | 0.0 | 0.00 | 0.00 | 0.00 | 78 | 1046.1 |
| 20260830145339 | 68 | 319 | 0.0 | 0.0 | 0.00 | 0.00 | 0.00 | 79 | 1046.2 |
| 20260830144835 | 67 | 312 | 0.0 | 0.0 | 0.00 | 0.00 | 0.00 | 80 | 1046.1 |
| 20260830144331 | 67 | 327 | 0.0 | 0.0 | 0.00 | 0.00 | 0.00 | 81 | 1046.3 |
| 20260830143827 | 67 | 319 | 0.0 | 0.0 | 0.00 | 0.00 | 0.00 | 80 | 1046.2 |
| 20260830143326 | 67 | 329 | 0.0 | 0.0 | 0.00 | 0.00 | 0.00 | 80 | 1046.1 |
| 20260830142820 | 67 | 322 | 0.0 | 0.0 | 0.00 | 0.00 | 0.00 | 79 | 1046.2 |
| 20260830142315 | 67 | 326 | 0.0 | 0.0 | 0.00 | 0.00 | 0.00 | 79 | 1045.9 |
| 20260830141811 | 67 | 325 | 0.0 | 0.0 | 0.00 | 0.00 | 0.00 | 79 | 1045.9 |
| 20260830141305 | 66 | 327 | 0.0 | 0.0 | 0.00 | 0.00 | 0.00 | 80 | 1046.2 |
| 20260830140801 | 66 | 326 | 0.0 | 0.0 | 0.00 | 0.00 | 0.00 | 80 | 1046.1 |
| 20260830140255 | 66 | 324 | 0.0 | 0.0 | 0.00 | 0.00 | 0.00 | 79 | 1046.1 |
| 20260830135750 | 66 | 342 | 0.0 | 0.0 | 0.00 | 0.00 | 0.00 | 79 | 1046.1 |
| 20260830135246 | 66 | 323 | 0.0 | 0.0 | 0.00 | 0.00 | 0.00 | 79 | 1045.9 |
| 20260830134741 | 66 | 329 | 0.0 | 0.0 | 0.00 | 0.00 | 0.00 | 81 | 1045.9 |
| 20260830134241 | 66 | 321 | 0.0 | 0.0 | 0.00 | 0.00 | 0.00 | 79 | 1046.0 |
| 20260830133737 | 66 | 329 | 0.0 | 0.0 | 0.00 | 0.00 | 0.00 | 80 | 1046.2 |
| 20260830133232 | 65 | 347 | 0.0 | 0.0 | 0.00 | 0.00 | 0.00 | 80 | 1046.2 |
| 20260830132728 | 64 | 289 | 0.0 | 0.0 | 0.00 | 0.00 | 0.00 | 81 | 1046.2 |
| 20260830132224 | 63 | 312 | 0.0 | 0.0 | 0.00 | 0.00 | 0.00 | 85 | 1046.2 |
| 20260830131722 | 62 | 343 | 0.0 | 0.0 | 0.00 | 0.00 | 0.00 | 89 | 1046.0 |
| 20260830131218 | 62 | 344 | 0.0 | 0.0 | 0.00 | 0.00 | 0.00 | 89 | 1045.8 |
| 20260830130713 | 62 | 354 | 0.0 | 0.0 | 0.00 | 0.00 | 0.00 | 89 | 1045.8 |
| 20260830130212 | 62 | 345 | 0.0 | 0.0 | 0.00 | 0.00 | 0.00 | 89 | 1045.9 |
| 20260830125712 | 62 | 324 | 0.0 | 0.0 | 0.00 | 0.00 | 0.00 | 89 | 1046.1 |
| 20260830125207 | 61 | 324 | 0.0 | 0.0 | 0.00 | 0.00 | 0.00 | 89 | 1046.0 |
| 20260830124704 | 61 | 323 | 0.0 | 0.0 | 0.00 | 0.00 | 0.00 | 89 | 1046.1 |
| 20260830124200 | 61 | 323 | 0.0 | 0.0 | 0.00 | 0.00 | 0.00 | 90 | 1046.0 |
| 20260830123657 | 61 | 342 | 0.0 | 0.0 | 0.00 | 0.00 | 0.00 | 90 | 1045.9 |
| 20260830123153 | 60 | 340 | 0.0 | 0.0 | 0.00 | 0.00 | 0.00 | 90 | 1046.0 |
| 20260830122650 | 60 | 337 | 0.0 | 0.0 | 0.00 | 0.00 | 0.00 | 89 | 1046.2 |
| 20260830122145 | 60 | 341 | 0.0 | 0.0 | 0.00 | 0.00 | 0.00 | 89 | 1046.1 |
| 20260830121641 | 60 | 321 | 0.0 | 0.0 | 0.00 | 0.00 | 0.00 | 90 | 1046.2 |
| 20260830121140 | 60 | 324 | 0.0 | 0.0 | 0.00 | 0.00 | 0.00 | 90 | 1046.2 |
| 20260830120635 | 59 | 325 | 0.0 | 0.0 | 0.00 | 0.00 | 0.00 | 91 | 1046.2 |
| 20260830120132 | 59 | 335 | 0.0 | 0.0 | 0.00 | 0.00 | 0.00 | 92 | 1046.2 |
| 20260830115628 | 59 | 346 | 0.0 | 0.0 | 0.00 | 0.00 | 0.00 | 93 | 1046.2 |
| 20260830115123 | 58 | 345 | 0.0 | 0.0 | 0.00 | 0.00 | 0.00 | 94 | 1046.3 |
| 20260830114620 | 58 | 344 | 0.0 | 0.0 | 0.00 | 0.00 | 0.00 | 94 | 1046.3 |
| 20260830114119 | 57 | 344 | 0.0 | 0.0 | 0.00 | 0.00 | 0.00 | 95 | 1046.5 |
| 20260830113614 | 57 | 345 | 0.0 | 0.0 | 0.00 | 0.00 | 0.00 | 95 | 1046.4 |
| 20260830113109 | 57 | 345 | 0.0 | 0.0 | 0.00 | 0.00 | 0.00 | 96 | 1046.5 |
| 20260830112606 | 56 | 344 | 0.0 | 0.0 | 0.00 | 0.00 | 0.00 | 96 | 1046.3 |
| 20260830112102 | 56 | 349 | 0.0 | 0.0 | 0.00 | 0.00 | 0.00 | 96 | 1046.4 |
| 20260830111557 | 56 | 337 | 0.0 | 0.0 | 0.00 | 0.00 | 0.00 | 96 | 1046.4 |
| 20260830111053 | 56 | 339 | 0.0 | 0.0 | 0.00 | 0.00 | 0.00 | 96 | 1046.5 |
| 20260830110552 | 56 | 335 | 0.0 | 0.0 | 0.00 | 0.00 | 0.00 | 96 | 1046.2 |
| 20260830110048 | 56 | 333 | 0.0 | 0.0 | 0.00 | 0.00 | 0.00 | 96 | 1046.1 |
| 20260830105543 | 55 | 335 | 0.0 | 0.0 | 0.00 | 0.00 | 0.00 | 96 | 1046.3 |
| 20260830105039 | 55 | 334 | 0.0 | 0.0 | 0.00 | 0.00 | 0.00 | 96 | 1046.5 |
| 20260830104536 | 55 | 334 | 0.0 | 0.0 | 0.00 | 0.00 | 0.00 | 96 | 1046.4 |
| 20260830104032 | 55 | 334 | 0.0 | 0.0 | 0.00 | 0.00 | 0.00 | 96 | 1046.3 |
| 20260830103526 | 55 | 334 | 0.0 | 0.0 | 0.00 | 0.00 | 0.00 | 96 | 1046.3 |
| 20260830103025 | 55 | 336 | 0.0 | 0.0 | 0.00 | 0.00 | 0.00 | 96 | 1046.3 |
| 20260830102520 | 55 | 334 | 0.0 | 0.0 | 0.00 | 0.00 | 0.00 | 96 | 1046.4 |
| 20260830102016 | 55 | 333 | 0.0 | 0.0 | 0.00 | 0.00 | 0.00 | 96 | 1046.5 |
| 20260830101511 | 55 | 331 | 0.0 | 0.0 | 0.00 | 0.00 | 0.00 | 96 | 1046.4 |
| 20260830101010 | 55 | 331 | 0.0 | 0.0 | 0.00 | 0.00 | 0.00 | 96 | 1046.5 |
| 20260830100510 | 55 | 330 | 0.0 | 0.0 | 0.00 | 0.00 | 0.00 | 96 | 1046.4 |
| 20260830100009 | 55 | 330 | 0.0 | 0.0 | 0.00 | 0.00 | 0.00 | 96 | 1046.4 |
| 20260830095504 | 55 | 332 | 0.0 | 0.0 | 0.00 | 0.00 | 0.00 | 96 | 1046.4 |
| 20260830095000 | 55 | 350 | 0.0 | 0.0 | 0.00 | 0.00 | 0.00 | 96 | 1046.4 |
| 20260830094456 | 55 | 350 | 0.0 | 0.0 | 0.00 | 0.00 | 0.00 | 96 | 1046.4 |
| 20260830093951 | 55 | 351 | 0.0 | 0.0 | 0.00 | 0.00 | 0.00 | 96 | 1046.5 |
| 20260830093446 | 55 | 328 | 0.0 | 0.0 | 0.00 | 0.00 | 0.00 | 96 | 1046.6 |
| 20260830092942 | 55 | 328 | 0.0 | 0.0 | 0.00 | 0.00 | 0.00 | 96 | 1046.6 |
| 20260830092437 | 55 | 328 | 0.0 | 0.0 | 0.00 | 0.00 | 0.00 | 96 | 1046.5 |
| 20260830091934 | 55 | 328 | 0.0 | 0.0 | 0.00 | 0.00 | 0.00 | 96 | 1046.5 |
| 20260830091429 | 55 | 328 | 0.0 | 0.0 | 0.00 | 0.00 | 0.00 | 96 | 1046.6 |
| 20260830090927 | 55 | 336 | 0.0 | 0.0 | 0.00 | 0.00 | 0.00 | 96 | 1046.5 |
| 20260830090423 | 55 | 340 | 0.0 | 0.0 | 0.00 | 0.00 | 0.00 | 96 | 1046.5 |
| 20260830085918 | 55 | 331 | 0.0 | 0.0 | 0.00 | 0.00 | 0.00 | 96 | 1046.8 |
| 20260830085413 | 55 | 326 | 0.0 | 0.0 | 0.00 | 0.00 | 0.00 | 96 | 1046.6 |
| 20260830084909 | 55 | 346 | 0.0 | 0.0 | 0.00 | 0.00 | 0.00 | 96 | 1046.8 |
| 20260830084403 | 55 | 340 | 0.0 | 0.0 | 0.00 | 0.00 | 0.00 | 96 | 1046.8 |
| 20260830083859 | 55 | 323 | 0.0 | 0.0 | 0.00 | 0.00 | 0.00 | 96 | 1046.9 |
| 20260830083355 | 55 | 341 | 0.0 | 0.0 | 0.00 | 0.00 | 0.00 | 96 | 1046.6 |
| 20260830082854 | 55 | 341 | 0.0 | 0.0 | 0.00 | 0.00 | 0.00 | 96 | 1046.8 |
| 20260830082349 | 55 | 339 | 0.0 | 0.0 | 0.00 | 0.00 | 0.00 | 96 | 1046.6 |
| 20260830081844 | 55 | 339 | 0.0 | 0.0 | 0.00 | 0.00 | 0.00 | 96 | 1046.6 |
| 20260830081344 | 55 | 339 | 0.0 | 0.0 | 0.00 | 0.00 | 0.00 | 96 | 1046.7 |
| 20260830080839 | 55 | 340 | 0.0 | 0.0 | 0.00 | 0.00 | 0.00 | 96 | 1046.8 |
| 20260830080336 | 55 | 340 | 0.0 | 0.0 | 0.00 | 0.00 | 0.00 | 96 | 1046.8 |
| 20260830075834 | 55 | 333 | 0.0 | 0.0 | 0.00 | 0.00 | 0.00 | 96 | 1047.0 |
| 20260830075330 | 55 | 346 | 0.0 | 0.0 | 0.00 | 0.00 | 0.00 | 96 | 1046.8 |
| 20260830074825 | 55 | 350 | 0.0 | 0.0 | 0.00 | 0.00 | 0.00 | 96 | 1047.0 |
| 20260830074321 | 55 | 351 | 0.0 | 0.0 | 0.00 | 0.00 | 0.00 | 96 | 1047.0 |
| 20260830073817 | 55 | 335 | 0.0 | 0.0 | 0.00 | 0.00 | 0.00 | 96 | 1046.9 |
| 20260830073312 | 55 | 323 | 0.0 | 0.0 | 0.00 | 0.00 | 0.00 | 96 | 1047.1 |